Location: Newark
(42.8481°N, 0.4872°E)
Time: 18:31:20
(UTC+00:00)

Vanguard 3 - Pass Details

Date: 27 October 2020
Orbit: 508 x 3262 km, 33.3° (Epoch: 24 November)

Event Time Altitude Azimuth Distance (km) Brightness Sun altitude
Rises 10:25:47 0° 276° (W) 7,233 11.7 31.5°
Reaches altitude 10° 10:31:01 10° 271° (W) 6,166 11.5 31.8°
Maximum altitude 10:48:31 47° 207° (SSW) 3,248 11.3 32.8°
Drops below altitude 10° 11:00:25 10° 138° (SE) 4,287 11.9 33.3°
Sets 11:03:21 0° 132° (SE) 4,954 11.9 33.4°
